Weather reports worldwide

Advertisment
Wick Airport (AWS), United Kingdom (3075): temperature & dewpoint: 24.09.2020 23:00:00 - 30.09.2020 23:00:00 (BST)Wick Airport (AWS), United Kingdom (3075): temperature -20cm: 24.09.2020 23:00:00 - 30.09.2020 23:00:00 (BST)Wick Airport (AWS), United Kingdom (3075): wind speed & gusts: 24.09.2020 23:00:00 - 30.09.2020 23:00:00 (BST)Wick Airport (AWS), United Kingdom (3075): wind direction: 24.09.2020 23:00:00 - 30.09.2020 23:00:00 (BST)Wick Airport (AWS), United Kingdom (3075): reduced air pressure: 24.09.2020 23:00:00 - 30.09.2020 23:00:00 (BST)Wick Airport (AWS), United Kingdom (3075): visibility: 24.09.2020 23:00:00 - 30.09.2020 23:00:00 (BST)Wick Airport (AWS), United Kingdom (3075): precipitation: 24.09.2020 23:00:00 - 30.09.2020 23:00:00 (BST)
Date & Time tt [°C] td [°C] tt -20cm [°C] ff [km/h] ff [kn] fx [km/h] fx [kn] dd ppp [hPa] vv [km] rr [mm]
30.09.2020 23:00:00 9,1 8,1 - 16 9 - - NW 996,9 9 0,8
30.09.2020 22:00:00 9,4 8,9 - 24 13 - - NW 996,9 8 1,2
30.09.2020 21:00:00 9,8 9,3 - 24 13 - - NW 996,7 3,4 1,4
30.09.2020 20:00:00 10,5 10,0 - 15 8 - - WNW 996,5 9 1,8
30.09.2020 19:00:00 11,4 10,8 - 13 7 - - SSE 996,1 6 2,4
30.09.2020 18:00:00 11,5 10,8 - 16 9 - - SSE 996,2 6 1,0
30.09.2020 17:00:00 11,8 10,7 - 22 12 - - SSE 996,2 11 0,0
30.09.2020 16:00:00 11,9 10,8 - 22 12 - - SSE 996,2 12 0,0
30.09.2020 15:00:00 11,7 10,5 - 28 15 - - SSE 996,5 13 0,4
30.09.2020 14:00:00 11,6 10,4 - 26 14 46 25 SSE 996,9 9 0,4
30.09.2020 13:00:00 11,6 10,2 - 29 16 54 29 SSE 997,2 7 0,0
30.09.2020 12:00:00 12,2 10,2 - 34 18 54 29 SSE 997,4 10 0,0
30.09.2020 11:00:00 11,6 9,4 - 39 21 59 32 SSE 997,9 11 0,0
30.09.2020 10:00:00 11,5 8,9 - 31 17 57 31 SSE 998,5 15 0,2
30.09.2020 09:00:00 11,3 8,8 - 37 20 59 32 SSE 999,0 11 0,2
30.09.2020 08:00:00 11,1 9,1 - 37 20 57 31 SSE 999,1 8 0,6
30.09.2020 07:00:00 10,8 8,5 - 37 20 61 33 SSE 999,6 8 0,4
30.09.2020 06:00:00 11,4 7,9 - 34 18 57 31 SSE 1000,3 18 0,0
30.09.2020 05:00:00 11,1 7,9 - 31 17 55 30 SSE 1001,5 15 0,0
30.09.2020 04:00:00 10,9 7,0 - 28 15 54 29 SSE 1002,7 29 0,0
30.09.2020 03:00:00 10,9 8,5 - 28 15 - - SSE 1004,1 14 0,0
30.09.2020 02:00:00 10,7 8,7 - 28 15 - - SSE 1005,2 19 0,0
30.09.2020 01:00:00 11,0 8,4 - 22 12 - - SSE 1006,3 17 0,0
30.09.2020 00:00:00 10,9 8,4 - 21 11 - - SE 1007,3 24 0,0
29.09.2020 23:00:00 11,1 8,7 - 21 11 - - SSE 1008,4 21 0,0
29.09.2020 22:00:00 11,2 8,7 - 21 11 - - SSE 1009,1 24 0,0
29.09.2020 21:00:00 11,4 8,5 - 18 10 - - SE 1009,9 26 0,0
29.09.2020 20:00:00 11,6 8,7 - 18 10 - - SE 1010,4 21 0,0
29.09.2020 19:00:00 11,0 8,6 - 15 8 - - SE 1011,2 23 0,0
29.09.2020 18:00:00 11,2 7,5 - 16 9 - - SE 1011,4 23 0,0
29.09.2020 17:00:00 11,9 8,1 - 16 9 - - SE 1011,7 23 0,0
29.09.2020 16:00:00 12,4 8,1 - 15 8 - - SSE 1012,2 30 0,0
29.09.2020 15:00:00 12,7 6,5 - 16 9 - - S 1012,6 28 0,0
29.09.2020 14:00:00 12,6 7,5 - 16 9 - - SSE 1013,0 24 0,0
29.09.2020 13:00:00 13,1 6,3 - 16 9 - - S 1013,4 23 0,0
29.09.2020 12:00:00 13,7 8,4 - 8 4 - - S 1013,7 50 0,0
29.09.2020 11:00:00 11,7 8,5 - 5 3 - - SW 1014,2 35 0,0
29.09.2020 10:00:00 9,5 7,4 10,7 5 3 - - SSW 1014,3 35 0,0
29.09.2020 09:00:00 8,4 6,1 - 5 3 - - S 1014,1 28 0,0
29.09.2020 08:00:00 6,8 5,0 - 8 4 - - SW 1013,9 23 0,0
29.09.2020 07:00:00 6,8 5,2 - 8 4 - - SW 1013,5 35 0,0
29.09.2020 06:00:00 6,5 4,4 - 4 2 - - SW 1013,3 35 0,0
29.09.2020 05:00:00 6,8 4,9 - 9 5 - - WSW 1013,0 30 0,0
29.09.2020 04:00:00 5,6 4,3 - 9 5 - - WSW 1012,8 45 0,0
29.09.2020 03:00:00 7,0 4,8 - 9 5 - - WSW 1012,7 45 0,0
29.09.2020 02:00:00 6,7 4,9 - 11 6 - - WSW 1012,3 50 0,0
29.09.2020 01:00:00 7,7 5,4 - 11 6 - - SW 1012,0 40 0,0
29.09.2020 00:00:00 8,5 5,7 - 9 5 - - SW 1011,6 30 0,0
28.09.2020 23:00:00 8,8 5,7 - 11 6 - - SSW 1011,1 28 0,0
28.09.2020 22:00:00 8,3 6,0 - 9 5 - - SW 1010,6 35 0,0
28.09.2020 21:00:00 9,1 6,0 - 9 5 - - SW 1010,2 45 0,0
28.09.2020 20:00:00 10,4 6,0 - 8 4 - - SW 1009,6 50 0,0
28.09.2020 19:00:00 12,8 6,4 - 29 16 - - WSW 1008,6 40 0,0
28.09.2020 18:00:00 13,2 8,5 - 11 6 - - W 1007,6 50 0,0
28.09.2020 17:00:00 15,1 7,9 - 24 13 - - W 1006,8 27 0,0
28.09.2020 16:00:00 14,8 11,3 - 11 6 - - SSW 1006,4 22 0,0
28.09.2020 15:00:00 12,9 10,2 - 16 9 - - S 1006,3 25 0,0
28.09.2020 14:00:00 12,7 9,0 - 21 11 - - S 1006,4 45 0,0
28.09.2020 13:00:00 12,6 8,0 - 18 10 - - S 1006,0 35 0,0
28.09.2020 12:00:00 11,9 7,4 - 24 13 - - S 1005,5 40 0,0
28.09.2020 11:00:00 12,1 6,0 - 21 11 - - S 1005,1 30 0,0
28.09.2020 10:00:00 11,4 6,3 10,9 16 9 - - SSE 1005,6 30 0,0
28.09.2020 09:00:00 11,2 6,1 - 21 11 - - SSE 1005,8 40 0,0
28.09.2020 08:00:00 10,6 6,4 - 11 6 - - SSE 1006,1 29 0,0
28.09.2020 07:00:00 10,1 7,8 - 22 12 - - SSE 1006,2 27 0,0
28.09.2020 06:00:00 9,8 6,7 - 15 8 - - SSE 1007,0 25 0,0
28.09.2020 05:00:00 10,5 7,3 - 21 11 - - SSE 1007,6 30 0,0
28.09.2020 04:00:00 10,5 6,3 - 0 0 - - N 1008,3 35 0,0
28.09.2020 03:00:00 10,3 6,9 - 0 0 - - N 1009,2 27 0,0
28.09.2020 02:00:00 10,4 6,0 - 0 0 - - N 1010,0 30 0,0
28.09.2020 01:00:00 10,3 7,5 - 0 0 - - N 1010,6 19 0,0
28.09.2020 00:00:00 10,2 6,9 - 0 0 - - N 1011,4 17 0,0
27.09.2020 23:00:00 9,9 6,8 - 0 0 - - N 1012,0 22 0,0
27.09.2020 22:00:00 9,5 5,8 - 0 0 - - N 1012,5 24 0,0
27.09.2020 21:00:00 9,1 5,4 - 0 0 - - N 1012,6 22 0,0
27.09.2020 20:00:00 8,5 4,9 - 0 0 - - N 1013,2 19 0,0
27.09.2020 19:00:00 8,8 4,6 - 0 0 - - N 1013,4 22 0,0
27.09.2020 18:00:00 9,0 4,4 - 0 0 - - N 1013,9 23 0,0
27.09.2020 17:00:00 9,2 4,1 - 0 0 - - N 1014,1 25 0,0
27.09.2020 16:00:00 9,7 4,3 - 0 0 - - N 1014,8 18 0,0
27.09.2020 15:00:00 9,7 3,5 - 0 0 - - N 1015,1 15 0,0
27.09.2020 14:00:00 10,7 4,6 - 0 0 - - N 1015,7 20 0,0
27.09.2020 13:00:00 9,7 4,0 - 0 0 - - N 1016,0 23 0,0
27.09.2020 12:00:00 10,0 4,4 - 0 0 - - N 1016,5 22 0,0
27.09.2020 11:00:00 10,1 4,3 - 0 0 - - N 1016,7 21 0,0
27.09.2020 10:00:00 8,9 5,0 - 0 0 - - N 1017,2 13 0,0
27.09.2020 09:00:00 8,5 5,0 - 0 0 - - N 1017,6 21 0,0
27.09.2020 08:00:00 6,8 4,9 - 0 0 - - N 1017,9 12 0,0
27.09.2020 07:00:00 5,5 3,9 - 0 0 - - N 1018,2 8 0,0
27.09.2020 06:00:00 6,9 3,9 - 0 0 - - N 1018,3 17 0,0
27.09.2020 05:00:00 7,1 3,4 - 0 0 - - N 1018,9 25 0,0
27.09.2020 04:00:00 7,7 4,2 - 0 0 - - N 1019,2 19 0,0
27.09.2020 03:00:00 7,5 4,5 - 0 0 - - N 1019,9 16 0,0
27.09.2020 02:00:00 6,1 3,4 - - - - - - 1020,2 6 0,0
27.09.2020 01:00:00 7,3 3,7 - 24 13 - - N 1020,6 22 0,0
27.09.2020 00:00:00 6,4 5,2 - 15 8 - - NW 1021,4 6 0,0
26.09.2020 23:00:00 4,7 3,8 - 13 7 - - NW 1021,3 11 0,0
26.09.2020 22:00:00 4,8 2,9 - 15 8 - - NW 1021,2 14 0,0
26.09.2020 21:00:00 8,0 4,7 - 26 14 - - N 1021,2 13 0,0
26.09.2020 20:00:00 8,3 4,5 - 26 14 - - N 1021,3 17 0,0
26.09.2020 19:00:00 8,6 4,2 - 28 15 - - N 1021,2 17 0,0
26.09.2020 18:00:00 9,5 5,2 - 29 16 - - N 1020,9 18 0,0
26.09.2020 17:00:00 10,0 4,7 - 31 17 48 26 N 1020,5 20 0,0
26.09.2020 16:00:00 10,8 5,4 - 34 18 46 25 N 1020,3 15 0,0
26.09.2020 15:00:00 11,5 5,3 - 31 17 46 25 N 1020,2 15 0,0
26.09.2020 14:00:00 10,8 4,9 - 34 18 46 25 N 1020,0 17 0,0
26.09.2020 13:00:00 11,5 4,9 - 34 18 46 25 NNE 1019,5 20 0,0
26.09.2020 12:00:00 11,3 5,5 - 37 20 50 27 N 1019,2 25 0,0
26.09.2020 11:00:00 10,6 4,3 - 37 20 54 29 N 1018,8 35 0,0
26.09.2020 10:00:00 10,4 4,1 - 35 19 52 28 N 1018,0 17 0,0
26.09.2020 09:00:00 9,7 4,6 - 31 17 - - N 1017,3 22 0,0
26.09.2020 08:00:00 8,6 4,1 - 28 15 46 25 N 1016,7 26 0,0
26.09.2020 07:00:00 8,0 5,8 - 26 14 - - N 1016,1 28 0,0
26.09.2020 06:00:00 6,9 5,7 - 16 9 - - NNW 1015,4 16 0,0
26.09.2020 05:00:00 8,0 5,6 - 29 16 - - N 1015,0 35 0,0
26.09.2020 04:00:00 4,7 3,4 - 16 9 - - NW 1014,5 12 0,0
26.09.2020 03:00:00 4,8 4,0 - 16 9 - - NW 1014,1 14 0,0
26.09.2020 02:00:00 4,8 3,5 - 16 9 - - NW 1013,7 45 0,0
26.09.2020 01:00:00 5,0 3,0 - 18 10 - - NW 1013,5 30 0,0
26.09.2020 00:00:00 7,7 4,9 - 21 11 - - NNW 1013,3 45 0,0
25.09.2020 23:00:00 6,1 4,8 - 18 10 - - NW 1013,1 17 0,0
25.09.2020 22:00:00 4,9 3,2 - 16 9 - - NW 1013,3 28 0,0
25.09.2020 21:00:00 7,5 5,0 - 24 13 - - NNW 1013,1 40 0,0
25.09.2020 20:00:00 7,3 4,5 - 26 14 - - NW 1012,9 35 0,0
25.09.2020 19:00:00 7,8 4,3 - 29 16 48 26 NW 1012,5 25 0,0
25.09.2020 18:00:00 8,9 3,5 - 37 20 52 28 NW 1012,0 24 0,0
25.09.2020 17:00:00 9,1 3,4 - 39 21 55 30 NW 1011,7 15 0,0
25.09.2020 16:00:00 9,1 2,5 - 39 21 54 29 NW 1011,8 28 0,0
25.09.2020 15:00:00 9,5 3,2 - 44 24 55 30 NNW 1011,7 23 0,0
25.09.2020 14:00:00 10,5 4,0 - 39 21 52 28 NNW 1011,7 13 0,0
25.09.2020 13:00:00 10,2 3,8 - 39 21 54 29 NNW 1011,3 20 0,0
25.09.2020 12:00:00 9,8 3,5 - 28 15 46 25 NNW 1011,0 40 0,0
25.09.2020 11:00:00 10,0 4,6 - 31 17 48 26 N 1010,1 27 0,0
25.09.2020 10:00:00 9,5 5,0 11,5 31 17 - - NNW 1009,5 35 0,0
25.09.2020 09:00:00 9,3 6,9 - 22 12 - - NNW 1008,8 21 0,0
25.09.2020 08:00:00 8,4 7,6 - 24 13 - - NNW 1008,2 23 0,0
25.09.2020 07:00:00 7,6 7,3 - 16 9 - - NW 1007,3 9 0,0
25.09.2020 06:00:00 4,7 4,5 - 9 5 - - WNW 1006,7 45 0,0
25.09.2020 05:00:00 4,9 4,5 - 11 6 - - WNW 1005,9 50 0,0
25.09.2020 04:00:00 5,9 5,5 - 16 9 - - WNW 1005,1 40 0,0
25.09.2020 03:00:00 5,3 4,9 - 11 6 - - W 1004,8 50 0,0
25.09.2020 02:00:00 5,6 5,1 - 8 4 - - W 1004,4 40 0,0
25.09.2020 01:00:00 4,9 4,3 - 9 5 - - W 1004,0 40 0,0
25.09.2020 00:00:00 5,0 3,8 - 11 6 - - W 1003,4 45 0,0
24.09.2020 23:00:00 8,3 5,3 - 11 6 - - NNW 1002,7 50 0,0

tt = temperature
td = dewpoint
tt -20cm = temperature -20cm
ff = wind speed
fx = gusts
dd = wind direction
ppp = reduced air pressure
vv = visibility
rr = precipitation

Next stations